Hourly Weather Roundup
Issued by NWS Central Illinois

Home | Current Version | Previous Version | Text Only | Print | Product List | Glossary On
Versions: 1 2 3 4 5 6 7 8 9 10 11 12 13 14 15 16 17 18 19 20 21 22 23 24 25 26 27 28 29 30 31 32 33 34 35 36 37 38 39 40 41 42 43 44 45 46 47 48 49 50
000
NZUS43 KILX 250210
HWRILX

AREA WEATHER ROUNDUP
NATIONAL WEATHER SERVICE, LINCOLN IL
800 PM CST FRI FEB 24 2017


CITY           SKY/WX    TMP DP  RH WIND       PRES   REMARKS
BLOOMINGTON    CLOUDY    41  36  82 W18       29.62R WCI  32
CHAMPAIGN      PTCLDY    44  34  67 W18       29.63R
DECATUR        PTCLDY    44  33  65 W15G23    29.65R
EFFINGHAM      CLEAR     45  39  79 W9        29.69S
FLORA          MOCLDY    51  42  70 NW16G22   29.68R
GALESBURG      RAIN      35  33  94 W13       29.65R WCI  26
JACKSONVILLE   CLOUDY    39  34  82 W17G24    29.70R WCI  30
LACON          CLOUDY    38  35  90 W9G18     29.61S WCI  31
LAWRENCEVILLE  CLOUDY    51  49  92 W7        29.66R
LITCHFIELD     PTCLDY    42  33  72 SW13G18   29.70R WCI  35
$$


CITY           SKY/WX    TMP DP  RH WIND       PRES   REMARKS
LINCOLN        MOCLDY    43  39  87 W6        29.65R
MACOMB         CLOUDY    36  33  89 W16G22    29.70R WCI  26
MATTOON        PTCLDY    44  35  70 W21G28    29.64S
MT CARMEL AP   CLOUDY    51  46  83 SW6       29.68R
OLNEY-NOBLE AP CLOUDY    50  45  81 W16       29.68R
PARIS          MOCLDY    45  40  82 W20       29.65R
PEORIA         CLOUDY    39  35  86 W16       29.64R WCI  30
PONTIAC        MOCLDY    41  40  95 W12       29.62R WCI  34
RANTOUL        MOCLDY    46  39  78 W10       29.62R
SPRINGFIELD    MOCLDY    43  35  73 W22G28    29.67R WCI  34
TAYLORVILLE    MOCLDY    43  33  66 SW14      29.68R
$$

...REGIONAL REPORTS...


CITY           SKY/WX    TMP DP  RH WIND       PRES   REMARKS
CHICAGO O`HARE DRIZZLE   38  35  89 W12       29.55R WCI  30
KANKAKEE       CLOUDY    42  35  78 W8G17     29.60R
MOLINE         LGT SNOW  34  30  85 NW8       29.65S FOG     WCI  27
MOUNT STERLING CLOUDY    35  33  91 W22       29.70R WCI  24
MOUNT VERNON   CLEAR     50  37  61 W9G17     29.71R
PITTSFIELD     CLOUDY    37  33  85 W22G32    29.73R WCI  26
QUINCY         CLOUDY    34  31  88 W15G25    29.73R WCI  24
ROCKFORD       LGT SNOW  31  28  89 N14       29.62S FOG     WCI  21
$$


CITY           SKY/WX    TMP DP  RH WIND       PRES   REMARKS
BURLINGTON     FLURRIES  34  32  92 W10       29.68R WCI  26
CEDAR RAPIDS   LGT SNOW  27  26  96 NW22G29   29.70R FOG     WCI  13
DES MOINES     LGT SNOW  24  21  88 N16G23    29.86R VSB 1   WCI  11
KIRKSVILLE     CLOUDY    28  24  85 NW16G24   29.81R WCI  16
OTTUMWA        LGT SNOW  26  24  92 NW20G28   29.77R FOG     WCI  12
ST LOUIS       MOCLDY    47  30  51 W17       29.73R
$$


CITY           SKY/WX    TMP DP  RH WIND       PRES   REMARKS
TERRE HAUTE    CLOUDY    49  41  74 NW9       29.66R
EVANSVILLE     HVY RAIN  53  46  77 W3        29.69R
INDIANAPOLIS   CLOUDY    50  45  83 W17       29.59F
LAFAYETTE      CLOUDY    44  38  79 W21G31    29.61R
MADISON        FLURRIES  27  24  89 N14       29.62R WCI  16
MILWAUKEE      DRIZZLE   33  29  85 NW13      29.54S FOG     WCI  24
$$





USA.gov is the U.S. government's official web portal to all federal, state and local government web resources and services.